FENGYUN 1C DEB

Satellite information

Favourite Embed

Satellite Type and Status

DEBRISIN ORBIT

Key statistics

Satellite FENGYUN 1C DEB at a glance.

Uptime

9715

Days in orbit

Revolutions

≈ 14.3

Per day

Orbit

SSO

Sun Synchronous Orbit

Inclination

99.4

Latest

Satellite identification and parameters

Extended collection of information and parameters for FENGYUN 1C DEB.

Object identification

Identified? True

Debris? True

Object name: FENGYUN 1C DEB

International designator: 1999-025BPL

Object number (NORAD): 31302

Object ID (CCSDS): 31302

Country: PEOPLES REPUBLIC OF CHINA (PRC)

Current information (Y/N): Y

RCS size: SMALL

Orbital parameters

Period: 100.878 minutes

Inclination: 99.4134 deg

SMA: 7178.361 km

Apoapsis: 819.939 km

Periapsis: 780.512 km

RAAN: 21.1132 deg

Eccentricy: 0.00274625

Argument of periapsis: 75.788 deg

Mean anomaly: 75.4083 deg

Mean motion: 14.27462928 rev/day

Mean motion (dot): 0.00006469 rev/day2

B* drag term: 0.0026425456 1/REarth

Two-line elements (TLE)

Creation date: Dec. 6, 2025, 6 a.m.

Reference frame: TEME

Reference center: EARTH

Epoch: Dec. 5, 2025, 2:46 p.m. UTC

TLE line 0: 0 FENGYUN 1C DEB

TLE line 1: 1 31302U 99025BPL 25339.61565884 .00006469 00000-0 26425-2 0 9995

TLE line 2: 2 31302 99.4134 21.1132 0027462 75.7880 75.4083 14.27462928962567

Live tracking on map

Real-time ground track for satellite FENGYUN 1C DEB.

In-orbit conjunctions

A list of the most updated potential collisions computed for object FENGYUN 1C DEB.

Target Orbit TCA Probability of collision Miss distance Type
PEGASUS R/B LEO 2025-09-30 05:07:00 0.0002683394 37.0 (m) ROCKET BODY
CZ-6A DEB LEO 2024-10-15 05:15:53 0.0002562431 810.0 (m) DEBRIS

Associated space launch

Chinese polar orbiting meteorological satellite

FENGYUN 1C DEB was lifted into orbit during the mission ‘Long March 4B | Feng Yun 1C’, on board a Long March 4B space rocket.

The launch took place on May 10, 1999, 1:33 a.m. from Launch Complex 7.

For more information about the launch, click the button.

Launch to space Long March 4B | Feng Yun 1C
Long March 4B | Feng Yun 1C

Agency: N/A

Status: Launch Successful

Launch date: May 10, 1999, 1:33 a.m. UTC

Rocket: Long March 4B

Launch pad: Launch Complex 7

Location: Taiyuan Satellite Launch Center, People's Republic of China

...

Latest news about this satellite

There are no fresh news available about this satellite. Check back as we update our databases every day.


Newsletter sign-up

Weekly statistics, charts and insights to help you stay on top of the space industry.